Regional Weather Roundup
Issued by NWS

Home | Current Version | Previous Version | Text Only | Print | Product List | Glossary On
Versions: 1 2 3 4 5 6 7 8 9 10 11 12 13 14 15 16 17 18 19 20 21 22 23 24 25 26 27 28 29 30 31 32 33 34 35 36 37 38 39 40 41 42 43 44 45 46 47 48 49 50
000
ASUS43 KMKX 221221
RWRWI

WISCONSIN REGIONAL WEATHER ROUNDUP
NATIONAL WEATHER SERVICE MILWAUKEE/SULLIVAN WI
700 AM CDT TUE JUL 22 2014

NOTE: "FAIR" INDICATES FEW OR NO CLOUDS BELOW 12,000 FEET WITH NO
SIGNIFICANT WEATHER AND/OR OBSTRUCTIONS TO VISIBILITY.

WIZ001-002-006>008-014>016-023>028-221300-
NORTHWEST WISCONSIN

CITY           SKY/WX    TMP DP  RH WIND       PRES   REMARKS
SUPERIOR ARPT  PTSUNNY   69  66  89 W13       29.78R
6HR MIN TEMP:  66; 6HR MAX TEMP:  80; 6HR PCP:  0.33;

ASHLAND        PTSUNNY   72  68  87 SW12G20   29.75R
6HR MIN TEMP:  67; 6HR MAX TEMP:  80; 6HR PCP:  0.70;

HAYWARD        MOSUNNY   72  65  78 W7        29.83R
6HR MIN TEMP:  70; 6HR MAX TEMP:  79; 6HR PCP:  0.04;

SIREN          SUNNY     70  64  81 W9        29.86R
6HR MIN TEMP:  70; 6HR MAX TEMP:  80;

RICE LAKE      PTSUNNY   78  73  83 SW12G17   29.84R HX  80
6HR MIN TEMP:  76; 6HR MAX TEMP:  78;

LADYSMITH      CLOUDY    76  72  85 S13       29.85R
6HR MIN TEMP:  75; 6HR MAX TEMP:  77;

EAU CLAIRE     CLOUDY    79  74  84 SW13      29.85R HX  82
6HR MIN TEMP:  78; 6HR MAX TEMP:  79;

MENOMONIE      CLOUDY    79  74  83 SW9       29.86R HX  83
6HR MIN TEMP:  78; 6HR MAX TEMP:  80;

NEW RICHMOND   SUNNY     75  63  65 W13G23    29.87R
6HR MIN TEMP:  75; 6HR MAX TEMP:  79;

OSCEOLA        SUNNY     74  64  71 W12G17    29.91R
6HR MIN TEMP:  74; 6HR MAX TEMP:  80;

$$

WIZ003>005-009-010-017-018-221300-
NORTH CENTRAL WISCONSIN

CITY           SKY/WX    TMP DP  RH WIND       PRES   REMARKS
WOODRUFF       CLOUDY    72  69  90 SW9G20    29.83S
6HR MIN TEMP:  72; 6HR MAX TEMP:  77;

RHINELANDER    CLOUDY    72  68  87 SW14      29.85F
6HR MIN TEMP:  72; 6HR MAX TEMP:  73; 6HR PCP: TRACE;

EAGLE RIVER    CLOUDY    73  68  84 SW8G16    29.83F
6HR MIN TEMP:  71; 6HR MAX TEMP:  73;

LAND O LAKES   CLOUDY    71  69  95 S6        29.83F FOG
6HR MIN TEMP:  70; 6HR MAX TEMP:  74; 6HR PCP:  0.02;

PHILLIPS       CLOUDY    74  71  88 SW12      29.84R
6HR MIN TEMP:  73; 6HR MAX TEMP:  74;

TOMAHAWK       CLOUDY    71  67  87 CALM      29.85F
6HR MIN TEMP:  71; 6HR MAX TEMP:  72;

MEDFORD        PTSUNNY   72  69  90 S10       29.87S
6HR MIN TEMP:  71; 6HR MAX TEMP:  73;

MERRILL        CLOUDY    73  69  88 SW9       29.86F
6HR MIN TEMP:  73; 6HR MAX TEMP:  74;

$$

WIZ029-030-035-036-043>047-221300-
CENTRAL WISCONSIN

CITY           SKY/WX    TMP DP  RH WIND       PRES   REMARKS
WAUSAU         PTSUNNY   74  69  85 S12       29.86F
6HR MIN TEMP:  73; 6HR MAX TEMP:  74;

MOSINEE        PTSUNNY   72  70  94 S9        29.89S
MARSHFIELD     PTSUNNY   74  69  85 S12       29.87F
6HR MIN TEMP:  73; 6HR MAX TEMP:  74;

STEVENS POINT  PTSUNNY   72  67  84 S9        29.90S
6HR MIN TEMP:  70; 6HR MAX TEMP:  72;

WAUPACA        PTSUNNY   74  70  85 S8        29.91R
6HR MIN TEMP:  73; 6HR MAX TEMP:  74;

WAUTOMA        PTSUNNY   75  69  81 S9        29.92S
6HR MIN TEMP:  72; 6HR MAX TEMP:  75;

WISC RAPIDS    PTSUNNY   76  68  76 S12       29.89F
6HR MIN TEMP:  74; 6HR MAX TEMP:  76; 6HR PCP: TRACE;

CAMP DOUGLAS   PTSUNNY   75  70  83 SW6       29.90R
                                      6HR PCP: TRACE;

$$

WIZ011>013-019>022-031-037>040-048>050-221300-
NORTHEAST WISCONSIN

CITY           SKY/WX    TMP DP  RH WIND       PRES   REMARKS
ANTIGO         PTSUNNY   70  68  95 S12       29.88F
6HR MIN TEMP:  68; 6HR MAX TEMP:  71;

STURGEON BAY   PTSUNNY   66  61  82 S14       29.93R
6HR MIN TEMP:  66; 6HR MAX TEMP:  68;

GREEN BAY      PTSUNNY   75  68  78 S13       29.91S HAZE
6HR MIN TEMP:  71; 6HR MAX TEMP:  75;

MANITOWOC      MOSUNNY   68  64  87 S10       29.94F
6HR MIN TEMP:  60; 6HR MAX TEMP:  68;

APPLETON       PTSUNNY   73  66  78 SW14      29.93S
CLINTONVILLE   PTSUNNY   73  68  83 S9        29.89S
OSHKOSH        PTSUNNY   73  68  84 S13G21    29.93R
6HR MIN TEMP:  72; 6HR MAX TEMP:  74;

$$

WIZ032>034-041-042-053>061-221300-
SOUTHWEST WISCONSIN

CITY           SKY/WX    TMP DP  RH WIND       PRES   REMARKS
LA CROSSE      SUNNY     78  69  73 S7        29.87R HX  80
6HR MIN TEMP:  77; 6HR MAX TEMP:  81; 6HR PCP: TRACE;

SPARTA         SUNNY     76  67  75 CALM      29.89S
6HR MIN TEMP:  75; 6HR MAX TEMP:  77;

VIROQUA        FAIR      75  68  79 S13G20    29.92S
6HR MIN TEMP:  73; 6HR MAX TEMP:  75;

BOSCOBEL       MOSUNNY   77  67  71 S7        29.91F
6HR MIN TEMP:  76; 6HR MAX TEMP:  79; 6HR PCP: TRACE;

PRAIRIE DU CHI MOSUNNY   77  66  67 S7        29.90F
6HR MIN TEMP:  77; 6HR MAX TEMP:  79;

PLATTEVILLE    FAIR      73  68  84 S13       29.96S
6HR MIN TEMP:  72; 6HR MAX TEMP:  75;

$$

WIZ056-057-062-063-064-067-068-221300-
SOUTH CENTRAL WISCONSIN

CITY           SKY/WX    TMP DP  RH WIND       PRES   REMARKS
BARABOO/DELLS  PTSUNNY   74  66  75 SW10      29.92R
6HR MIN TEMP:  73; 6HR MAX TEMP:  74;

LONE ROCK      PTSUNNY   79  69  71 CALM      29.93S HX  81
6HR MIN TEMP:  78; 6HR MAX TEMP:  80;

WATERTOWN      MOSUNNY   71  67  85 S7        29.96F
6HR MIN TEMP:  69; 6HR MAX TEMP:  71;

MADISON        PTSUNNY   75  66  73 S10       29.95F
6HR MIN TEMP:  74; 6HR MAX TEMP:  76;

MIDDLETON      FAIR      74  66  75 W6        29.97R
6HR MIN TEMP:  74; 6HR MAX TEMP:  75;

MONROE         MOSUNNY   72  66  83 S20       29.96F
JANESVILLE     SUNNY     73  64  73 S13       29.98F
$$

WIZ051-052-058>065-066-070>072-221300-
SOUTHEAST WISCONSIN

CITY           SKY/WX    TMP DP  RH WIND       PRES   REMARKS
MILWAUKEE      MOSUNNY   72  65  78 S14       29.99F
6HR MIN TEMP:  70; 6HR MAX TEMP:  74;

WAUKESHA       MOSUNNY   70  64  83 S12       30.01F
MILWAUKEE/TIMM SUNNY     72  63  73 MISG      30.00F
RACINE         SUNNY     73  65  75 S13       30.03F
6HR MIN TEMP:  70; 6HR MAX TEMP:  73;

BURLINGTON     SUNNY     69  65  85 S8        30.01S
6HR MIN TEMP:  64; 6HR MAX TEMP:  69;

KENOSHA        SUNNY     72  66  81 S10       30.03S
6HR MIN TEMP:  68; 6HR MAX TEMP:  72;

FOND DU LAC    PTSUNNY   74  66  76 S15       29.94S
6HR MIN TEMP:  73; 6HR MAX TEMP:  75;

SHEBOYGAN      MOSUNNY   72  66  81 S14       29.96F
6HR MIN TEMP:  66; 6HR MAX TEMP:  72;

WEST BEND      PTSUNNY   72  63  73 S9        29.97F
JUNEAU         PTSUNNY   72  52  50 S13       29.97F
6HR MIN TEMP:  70; 6HR MAX TEMP:  72;

$$

LSZ147-162-221300-
LAKE SUPERIOR

STATION/POSITION TIME  TEMP    WIND        PRES    WAVE
                       AIR SEA DIR/SP/G            HT/PER
                 (UTC) (F)     (DEG/KT/KT) (MB)    (FT/S)
W MID LAKE BUOY  1150   55 39  220/  4/  6 1006.1R   2/ 3
PORT WING        1100   71     230/ 12/ 19 1007.5R
SAXON HARBOR     1200          280/ 10/ 17 1006.8R
$$

LMZ867-665-643>646-221300-
LAKE MICHIGAN

STATION/POSITION TIME  TEMP    WIND        PRES    WAVE
                       AIR SEA DIR/SP/G            HT/PER
                 (UTC) (F)     (DEG/KT/KT) (MB)    (FT/S)
N MID LAKE BUOY  1150   62 57  190/ 16/ 17 1012.5F   3/ 4
NORTHPORT PIER   1100   65     160/  9/ 16 1013.2S
KEWAUNEE LAKESHO 1200   58     180/ 13/ 14 1014.3F
SHEBOYGAN LAKESH 1200   67     180/ 20/ 21 1014.2F
PORT WASHINGTON  1140   60     200/  7/ 10 1015.6F
ATWATER BUOY     1200   56     190/  6     1016.5F
MILWAUKEE LAKESH 1200   66     160/ 10/ 12   N/A
S MID LAKE BUOY  1150   70 68  180/ 12/ 14 1017.4S   1/ 3
KENOSHA   LAKESH 1200   63     180/ 13/ 15   N/A
$$

TC  - TEMPERATURE IN CELSIUS
VSB - VISIBILITY IN STATUTE MILES
WCI - WIND CHILL INDEX
HX  - HEAT INDEX



USA.gov is the U.S. government's official web portal to all federal, state and local government web resources and services.